This is the latest recevied weather packets stored in our database for station/object OE-11204. If no packets are shown the sender has not sent any weather packets the latest 10 day(s).
| Time | Temp. | Humidity | Pressure | Rain* | Wind** | Luminosity | Snow |
|---|---|---|---|---|---|---|---|
| 1787632888 | 15.56° C | 87% | 1014 hPa | 0 mm | - | 0 W/m² | - |
| 1787632515 | 15° C | 87% | 1014 hPa | 0 mm | - | 0 W/m² | - |
| 1787631915 | 15° C | 88% | 1014 hPa | 0 mm | - | 0 W/m² | - |
| 1787631088 | 15° C | 88% | 1014 hPa | 0 mm | - | 0 W/m² | - |
| 1787630715 | 15° C | 88% | 1014.2 hPa | 0 mm | - | 0 W/m² | - |
| 1787630115 | 14.44° C | 90% | 1014.3 hPa | 0 mm | - | 0 W/m² | - |
| 1787629515 | 14.44° C | 89% | 1014.4 hPa | 0 mm | - | 0 W/m² | - |
| 1787628915 | 14.44° C | 90% | 1014.5 hPa | 0 mm | - | 0 W/m² | - |
| 1787628314 | 14.44° C | 90% | 1014.8 hPa | 0 mm | - | 0 W/m² | - |
| 1787627487 | 14.44° C | 89% | 1014.6 hPa | 0 mm | - | 0 W/m² | - |
| 1787627114 | 14.44° C | 90% | 1014.6 hPa | 0 mm | - | 0 W/m² | - |
| 1787626515 | 14.44° C | 90% | 1014.8 hPa | 0 mm | - | 0 W/m² | - |
| 1787625687 | 14.44° C | 89% | 1015 hPa | 0 mm | - | 0 W/m² | - |
| 1787624714 | 14.44° C | 90% | 1015 hPa | 0 mm | - | 0 W/m² | - |
| 1787623887 | 15° C | 89% | 1015 hPa | 0 mm | - | 0 W/m² | - |
| 1787623514 | 15° C | 87% | 1015.2 hPa | 0 mm | - | 0 W/m² | - |
| 1787622915 | 15° C | 88% | 1015.2 hPa | 0 mm | - | 0 W/m² | - |
| 1787622088 | 15.56° C | 86% | 1015.2 hPa | 0 mm | - | 0 W/m² | - |
| 1787621715 | 15.56° C | 87% | 1015.5 hPa | 0 mm | - | 0 W/m² | - |
| 1787621115 | 15.56° C | 88% | 1015.8 hPa | 0 mm | - | 0 W/m² | - |
| 1787620287 | 15.56° C | 87% | 1015.7 hPa | 0 mm | - | 0 W/m² | - |
| 1787619915 | 16.11° C | 84% | 1015.7 hPa | 0 mm | - | 0 W/m² | - |
| 1787619314 | 16.67° C | 83% | 1015.9 hPa | 0 mm | - | 0 W/m² | - |
| 1787618487 | 16.67° C | 82% | 1015.9 hPa | 0 mm | - | 0 W/m² | - |
| 1787618115 | 16.67° C | 83% | 1016.2 hPa | 0 mm | - | 0 W/m² | - |
* Rain latest hour (hover to see other rain measurements)
** Current wind speed in m/s (hover to see current wind gust speed)